SHIJIAN-6 02B (SJ-6 02B)

Last updated on Sun Apr 12 2026 00:03:41 GMT+0000 (Coordinated Universal Time)

1 29506U 06046B 26101.49474889 .00002215 00000+0 17735-3 0 9996 2 29506 97.7121 130.9818 0011698 294.5747 65.4258 15.01167256 60734
UTC large
Height (km)
Speed (km/s)
/
Latitude / Longitude
Inclination (degrees)
Orbital Period (minutes)
Azimuth
Elevation
Range (km)
Doppler Factor

Next 0 passes for location: London (51.5072 / 0.1276)

Sorry there are no passes over London.
SHIJIAN-6 02B (SJ-6 02B)